Погода в Бикине

Погода в Бикине : погода сейчас, прогноз погоды и архив. Всё, что Вы хотите узнать о погоде в Бикине!

Хотите узнать прогноз погоды в Бикине? Тогда Вам сюда: Погода в Бикине

Поиск расширенной информации на нашем сайте:

Другие новости

Новости СМИ2

Главная страница сайта

Новости сайта

02.10.2013

Напоминаем, что на нашем новом сайте вы можете получить высокодетализированные прогнозы погоды по пунктам России, СНГ и мира (включающие важные для авиации метеовеличины, такие как направление и скорость ветра, видимость, явления погоды, количество и форма облачности, нижняя и верхняя граница облачности), а также ознакомиться с разнообразными материалами по авиационной метеорологии и подборкой полезных ссылок на эту тему.

Сайт Метеоцентр.Азия посвящён разработке технологий оптимизации авиаметеорологического обслуживания, включая проектирование и перспективное создание нескольких автоматизированных авиаметеорологических систем:
- система выпуска высокодетальных прогностических карт явлений погоды для нижнего воздушного пространства по России и ближнему зарубежью;
- система верификации прогнозов TAF (выпускаемых синоптиками официальных АМСГ РФ и ближнего зарубежья) и AUTOTAF (выпускаемых сайтом Метеоцентр.Азия) - выявление ошибок, онлайн-сопоставление с фактической погодой METAR, автоматическое внесение коррективов в прогнозы при резком отклонении фактической погоды от прогноза, подсчёт оправдываемости прогнозов по элементам и в целом;
- система обработки, анализа и отображения авиаметеорологической информации для применения провайдерами метеорологической информации.

Рекомендуем: http://tekstail.com.ua/ кухонные шторы купить. Фото штор.

Погода в Бикине - сегодня

Время (UTC), дата Ветер
(°,м/с) 
Видим.   Явления Облачность Т
(°С)
Тd
(°С)
f(%) Тe
(°С)
Pmin
(гПа)
dP
(гПа)
Po
(мм)
O2
(г/м3)
Тmin Tmax R s Состояние
почвы
18 16.01.17 тихо ()   10 км    ясно 
-20.2 -22.3 83 -20  1029.5  0.3  765  335           
21 16.01.17 тихо ()   16000 м    9/0 средняя 
[Ac As]
-20.9 -23.3 81 -21  1030.1  0.5  766  336  -21.6      24  равномерный
сухой снег
100% 
00 17.01.17 тихо ()   10 км    9/9 600 м 
[Sc]
-17.8 -20 83 -18  1030.5  0.5  766  332           
03 17.01.17 270 (З) 10 км    9/9 600 м 
[Sc]
-12.6 -15.8 77 -13  1029.9  -0.4  766  325           
06 17.01.17 130 (ЮВ) 20000 м  {снег}  9/9 600 м 
[Sc]
-8.3 -14.7 60 -10  1029.1  -0.6  765  319           
09 17.01.17 080 (В) 17000 м    ясно 
-12.2 -16.1 73 -12  1029.6  0.4  765  324    -8.2  0.0     
12 17.01.17 тихо ()   10 км    ясно 
-18 -19.9 85 -18  1030  0.2  766  332           
15 17.01.17 070 (В) 10 км    ясно 
-21.6 -23.7 83 -22  1030.1  0.1  766  337           
18 17.01.17 тихо ()   12000 м    ясно 
-23.3 -25.8 80 -23  1030.3  -0.1  766  339           
21 17.01.17 тихо ()   11000 м    3/3 600 м верхняя 
[Sc|Ci sp]
-24.5 -27.2 78 -25  1029.8  -0.5  765  341  -24.8      23  равномерный
сухой снег
100% 
00 18.01.17 тихо ()   10 км    1/0 верхняя 
[Ci fib]
-23.2 -25.6 81 -23  1029.2  -0.5  765  339  -25.7         
03 18.01.17 тихо ()   10 км    4/0 верхняя 
[Cc]
-10.6 -17 59 -11  1027.1  -1.6  764  322           
06 18.01.17 тихо ()   20000 м    8/0 средняя, верхняя 
[Ac lent|Ci]
-10.5 -16.4 62 -11  1025.6  -1.5  762  321           
09 18.01.17 тихо ()   12000 м    4/0 средняя, верхняя 
[Ac trans|Ci fib]
-16.5 -18.6 84 -17  1026.3  0.5  763  329    -7.8       
12 18.01.17 тихо ()   6000 м  дымка  10/0 верхняя 
[Ci sp]
-20.1 -22 85 -20  1026.4  0.1  763  333           
15 18.01.17 тихо ()   4500 м  дымка  10/0 средняя 
[Ac As]
-18 -20.3 82 -18  1026.3  0.1  763  331           
18 18.01.17 тихо ()   4200 м  дымка  10/4 600 м средняя 
[Sc|Ac As]
-17.3 -19.6 82 -17  1026.5  0.2  763  330           
21 18.01.17 тихо ()   6000 м  слаб. снег  10/0 средняя 
[As op]
-17.5 -19.5 84 -18  1026.3  -0.2  763  330  -20.4    0.2  22  равномерный
сухой снег
100% 
00 19.01.17 310 (СЗ) 20000 м  {снег}  3/0 средняя 
[Ac trans]
-18.7 -21.1 81 -19  1026.7  0.3  763  332           
03 19.01.17 290 (З) 20000 м    9/0 средняя 
[Ac As]
-13.3 -18.5 65 -13  1025.6  -0.8  762  324           
06 19.01.17 200 (Ю) 20000 м    10/0 средняя 
[Ac As]
-11.5 -17.1 63 -11  1024.6  -1  762  322           
09 19.01.17 080 (В) 17000 м    6/0 средняя, верхняя 
[Ac lent|Ci fib]
-15.5 -18.7 76 -18  1024.5  -0.2  762  327    -11.2  0.0     
12 19.01.17 тихо ()   17000 м    3/0 средняя 
[Ac lent]
-20.2 -21.9 86 -20  1024.8  0.1  762  333           
15 19.01.17 тихо ()   6000 м  дымка  3/0 средняя 
[Ac lent]
-22.8 -25.1 81 -23  1024.4  -0.4  761  336           
18 19.01.17 тихо ()   4500 м  дымка  ясно 
-24.1 -26.5 80 -24  1023.7  -0.8  761  338           
Время (UTC), дата Ветер
(°,м/с) 
Видим.   Явления Облачность Т
(°С)
Тd
(°С)
f(%) Тe
(°С)
Pmin
(гПа)
dP
(гПа)
Po
(мм)
O2
(г/м3)
Тmin Tmax R s Состояние
почвы

Для получения пояснительной информации подведите курсор к названию столбца.

ПОГОДА в Бикине - архив

Всё, что Вы хотите узнать о погоде в Бикине - удобно и подробно!

Выберите нужную дату (начиная с 1 января 2015* года) и нажмите кнопку "Найти".
Будут отображены архивные сводки погоды по пункту Бикин, начиная с указанной даты.


Отображать данные в формате CSV (для использования в таблицах Excel)


Внимание! Наш архив погоды предназначен исключительно для личного некоммерческого использования в познавательных целях. Если Вам необходимы официальные справки о состоянии погоды (для производственных, юридических, коммерческих и т.п. целей), обращайтесь в органы Росгидромета.

*Примечание: данная дата относится к архиву по метеостанциям СССР (Россия, СНГ, Балтия).
Архив по метеостанциям Зарубежной Европы и Азии (кроме Китая) хранится 10 дней, по другим регионам земного шара (Китай, Африка, Америка, Австралия, Океания) - 1 день.

Бикин - район местоположения метеостанции


Название, широта, долгота, высота метеостанции:
Бикин 46.8°ш. 134.3°д. 68 м над ур. моря [Российская Федерация]

Дополнительная информация

В oтличие oт бoльшинства пoгoдных сайтoв мы публикуем пoдрoбную метеoинфoрмацию в детальнoм прoфессиoнальнoм фoрмате.

Характеристики температуры и влажнoсти вoздуха измеряются на высoте 2 м в тени вдали oт зданий и деревьев.
Скoрoсть ветра измеряется на высoте 10 м (на урoвне рoста челoвека скoрoсть ветра ниже в 1.5-2 раза). Если метеoстанция нахoдится в гoрoде или в лесу, тo скoрoсть ветра занижена на 2-4 м/с пo сравнению с oткрытым местoм. Скoрoсть ветра над акватoриями крупных рек и oзёр, а также на вершинах хoлмoв на 2-5 м/с выше, чем в oбычных услoвиях.
Атмoсфернoе давление в разных тoчках местнoсти мoжет значительнo oтличаться oт давления на метеoстанции, в зависимoсти oт услoвий рельефа (при пoдъёме на 10 м давление пoнижается примернo на 1 мм рт.ст.).